COSMOS 2477 (745)

Last updated on Thu Oct 30 2025 00:03:21 GMT+0000 (Coordinated Universal Time)

1 37868U 11064B 25302.33933583 .00000050 00000+0 00000+0 0 9996 2 37868 65.1455 80.7503 0020018 231.1675 134.9997 2.13102882108849
UTC large
Height (km)
Speed (km/s)
/
Latitude / Longitude
Inclination (degrees)
Orbital Period (minutes)
Azimuth
Elevation
Range (km)
Doppler Factor

Next 0 passes for location: London (51.5072 / 0.1276)

Sorry there are no passes over London.